TimeCST,TemperatureF,Dew PointF,Humidity,Sea Level PressureIn,VisibilityMPH,Wind Direction,Wind SpeedMPH,Gust SpeedMPH,PrecipitationIn,Events,Conditions,WindDirDegrees,DateUTC
12:53 AM,35.1,28.9,78,29.77,10.0,NW,18.4,-,N/A,,Partly Cloudy,310,2013-02-26 06:53:00
1:53 AM,34.0,28.9,82,29.78,10.0,NW,21.9,32.2,N/A,,Partly Cloudy,320,2013-02-26 07:53:00
2:53 AM,34.0,28.0,79,29.78,10.0,WNW,16.1,-,N/A,,Clear,300,2013-02-26 08:53:00
3:53 AM,33.1,28.0,82,29.78,10.0,NW,16.1,24.2,N/A,,Clear,310,2013-02-26 09:53:00
4:53 AM,33.1,27.0,78,29.80,10.0,WNW,17.3,34.5,N/A,,Clear,300,2013-02-26 10:53:00
5:53 AM,32.0,27.0,82,29.82,10.0,NW,11.5,-,N/A,,Clear,310,2013-02-26 11:53:00
6:53 AM,30.9,26.1,82,29.84,10.0,NW,16.1,-,N/A,,Clear,310,2013-02-26 12:53:00
7:53 AM,32.0,26.1,79,29.86,8.0,WNW,12.7,-,N/A,,Clear,300,2013-02-26 13:53:00
8:53 AM,33.1,26.1,75,29.86,10.0,WNW,19.6,-,N/A,,Clear,300,2013-02-26 14:53:00
9:53 AM,36.0,28.0,73,29.87,10.0,NW,17.3,-,N/A,,Clear,310,2013-02-26 15:53:00
10:53 AM,39.9,30.9,70,29.88,10.0,WNW,13.8,-,N/A,,Clear,300,2013-02-26 16:53:00
11:53 AM,44.1,30.9,60,29.88,10.0,NW,15.0,20.7,N/A,,Clear,320,2013-02-26 17:53:00
12:53 PM,46.0,33.1,61,29.86,10.0,NW,10.4,-,N/A,,Clear,320,2013-02-26 18:53:00
1:53 PM,48.0,34.0,58,29.84,10.0,NNW,8.1,-,N/A,,Clear,330,2013-02-26 19:53:00
2:53 PM,48.9,33.1,54,29.82,10.0,WNW,8.1,-,N/A,,Partly Cloudy,290,2013-02-26 20:53:00
3:53 PM,50.0,34.0,54,29.82,10.0,West,6.9,-,N/A,,Scattered Clouds,260,2013-02-26 21:53:00
4:53 PM,48.9,32.0,52,29.82,10.0,West,6.9,-,N/A,,Clear,280,2013-02-26 22:53:00
5:53 PM,48.0,30.9,52,29.82,10.0,WNW,4.6,-,N/A,,Clear,290,2013-02-26 23:53:00
6:53 PM,43.0,35.1,74,29.84,10.0,North,8.1,-,N/A,,Clear,360,2013-02-27 00:53:00
7:53 PM,39.0,33.1,79,29.85,10.0,NNE,9.2,-,N/A,,Clear,20,2013-02-27 01:53:00
8:53 PM,37.0,32.0,82,29.87,10.0,NNE,12.7,-,N/A,,Clear,20,2013-02-27 02:53:00
9:53 PM,37.0,30.0,76,29.89,10.0,North,13.8,-,N/A,,Mostly Cloudy,10,2013-02-27 03:53:00
10:53 PM,37.0,30.9,79,29.89,10.0,North,13.8,-,N/A,,Scattered Clouds,10,2013-02-27 04:53:00
11:53 PM,37.0,28.9,73,29.90,10.0,North,13.8,-,N/A,,Overcast,10,2013-02-27 05:53:00